| time (UTC) | temp C | wind direction | speed KPH | gust KPH | rain 1hr cm | rain 24hr cm | rain mn cm | humidity % | barometer mb |
| 20260905184335 | 21 | 86 | 4.8 | 8.0 | 0.00 | 0.00 | 0.00 | 81 | 1017.2 |
| 20260905183832 | 21 | 8 | 4.8 | 8.0 | 0.00 | 0.00 | 0.00 | 82 | 1017.2 |
| 20260905183331 | 21 | 24 | 3.2 | 8.0 | 0.00 | 0.00 | 0.00 | 81 | 1017.0 |
| 20260905182831 | 21 | 344 | 4.8 | 9.7 | 0.00 | 0.00 | 0.00 | 82 | 1017.0 |
| 20260905182331 | 21 | 11 | 6.4 | 9.7 | 0.00 | 0.00 | 0.00 | 78 | 1017.0 |
| 20260905182103 | 21 | 72 | 4.8 | 9.7 | 0.00 | 0.00 | 0.00 | 80 | 1017.0 |
| 20260905181331 | 21 | 21 | 1.6 | 9.7 | 0.00 | 0.00 | 0.00 | 81 | 1017.0 |
| 20260905180830 | 21 | 357 | 4.8 | 11.3 | 0.00 | 0.00 | 0.00 | 82 | 1017.0 |
| 20260905180438 | 21 | 44 | 3.2 | 8.0 | 0.00 | 0.00 | 0.00 | 80 | 1017.0 |
| 20260905180423 | 21 | 34 | 4.8 | 11.3 | 0.00 | 0.00 | 0.00 | 79 | 1017.0 |
| 20260905180110 | 22 | 38 | 3.2 | 9.7 | 0.00 | 0.00 | 0.00 | 81 | 1017.0 |
| 20260905174829 | 21 | 72 | 3.2 | 9.7 | 0.00 | 0.00 | 0.00 | 79 | 1017.1 |
| 20260905174330 | 21 | 71 | 3.2 | 9.7 | 0.00 | 0.00 | 0.00 | 82 | 1017.1 |
| 20260905173830 | 21 | 71 | 6.4 | 9.7 | 0.00 | 0.00 | 0.00 | 83 | 1017.0 |
| 20260905173329 | 21 | 48 | 6.4 | 9.7 | 0.00 | 0.00 | 0.00 | 82 | 1017.0 |
| 20260905172829 | 21 | 82 | 4.8 | 9.7 | 0.00 | 0.00 | 0.00 | 81 | 1016.9 |
| 20260905172329 | 21 | 28 | 6.4 | 14.5 | 0.00 | 0.00 | 0.00 | 81 | 1016.9 |
| 20260905171829 | 20 | 65 | 6.4 | 14.5 | 0.00 | 0.00 | 0.00 | 82 | 1016.9 |
| 20260905171327 | 21 | 78 | 9.7 | 14.5 | 0.00 | 0.00 | 0.00 | 81 | 1017.0 |
| 20260905171058 | 21 | 63 | 9.7 | 14.5 | 0.00 | 0.00 | 0.00 | 81 | 1017.0 |
| 20260905170332 | 21 | 62 | 8.0 | 14.5 | 0.00 | 0.00 | 0.00 | 81 | 1016.9 |
| 20260905165826 | 21 | 51 | 6.4 | 14.5 | 0.00 | 0.00 | 0.00 | 81 | 1017.0 |
| 20260905165324 | 21 | 92 | 9.7 | 14.5 | 0.00 | 0.00 | 0.00 | 81 | 1017.1 |
| 20260905164838 | 21 | 78 | 9.7 | 14.5 | 0.00 | 0.00 | 0.00 | 81 | 1017.0 |
| 20260905164326 | 21 | 62 | 6.4 | 11.3 | 0.00 | 0.00 | 0.00 | 83 | 1017.1 |
| 20260905163825 | 21 | 85 | 6.4 | 11.3 | 0.00 | 0.00 | 0.00 | 81 | 1017.1 |
| 20260905163326 | 21 | 75 | 8.0 | 14.5 | 0.00 | 0.00 | 0.00 | 81 | 1017.3 |
| 20260905163052 | 21 | 59 | 6.4 | 14.5 | 0.00 | 0.00 | 0.00 | 84 | 1017.2 |
| 20260905162547 | 21 | 114 | 6.4 | 11.3 | 0.00 | 0.00 | 0.00 | 81 | 1017.1 |
| 20260905161822 | 21 | 63 | 6.4 | 14.5 | 0.00 | 0.00 | 0.00 | 83 | 1017.2 |
| 20260905161321 | 21 | 63 | 9.7 | 16.1 | 0.00 | 0.00 | 0.00 | 81 | 1017.2 |
| 20260905160820 | 20 | 62 | 8.0 | 16.1 | 0.00 | 0.00 | 0.00 | 83 | 1017.1 |
| 20260905160320 | 21 | 35 | 9.7 | 14.5 | 0.00 | 0.00 | 0.00 | 83 | 1017.2 |
| 20260905160043 | 21 | 75 | 8.0 | 14.5 | 0.00 | 0.00 | 0.00 | 83 | 1017.2 |
| 20260905155320 | 21 | 83 | 4.8 | 11.3 | 0.00 | 0.00 | 0.00 | 84 | 1017.0 |
| 20260905154821 | 20 | 83 | 6.4 | 14.5 | 0.00 | 0.00 | 0.00 | 84 | 1016.9 |
| 20260905154318 | 20 | 82 | 9.7 | 14.5 | 0.00 | 0.00 | 0.00 | 83 | 1016.9 |
| 20260905154044 | 21 | 47 | 9.7 | 14.5 | 0.00 | 0.00 | 0.00 | 83 | 1016.9 |
| 20260905153318 | 21 | 63 | 6.4 | 11.3 | 0.00 | 0.00 | 0.00 | 83 | 1016.9 |
| 20260905152816 | 21 | 82 | 6.4 | 11.3 | 0.00 | 0.00 | 0.00 | 84 | 1016.9 |
| 20260905152314 | 21 | 83 | 6.4 | 14.5 | 0.00 | 0.00 | 0.00 | 84 | 1016.9 |
| 20260905151814 | 21 | 89 | 9.7 | 14.5 | 0.00 | 0.00 | 0.00 | 83 | 1016.8 |
| 20260905151314 | 21 | 100 | 6.4 | 14.5 | 0.00 | 0.00 | 0.00 | 84 | 1016.8 |
| 20260905150815 | 21 | 92 | 6.4 | 14.5 | 0.00 | 0.00 | 0.00 | 85 | 1016.7 |
| 20260905150313 | 20 | 51 | 6.4 | 17.7 | 0.00 | 0.00 | 0.00 | 84 | 1016.7 |
| 20260905145813 | 20 | 95 | 9.7 | 17.7 | 0.00 | 0.00 | 0.00 | 85 | 1016.5 |
| 20260905145312 | 20 | 97 | 9.7 | 16.1 | 0.00 | 0.00 | 0.00 | 85 | 1016.6 |
| 20260905144807 | 20 | 92 | 8.0 | 14.5 | 0.00 | 0.00 | 0.00 | 86 | 1016.6 |
| 20260905144307 | 21 | 79 | 9.7 | 14.5 | 0.00 | 0.00 | 0.00 | 85 | 1016.6 |
| 20260905143804 | 21 | 45 | 6.4 | 16.1 | 0.00 | 0.00 | 0.00 | 86 | 1016.5 |
| 20260905143304 | 20 | 92 | 8.0 | 16.1 | 0.00 | 0.00 | 0.00 | 85 | 1016.6 |
| 20260905142306 | 20 | 80 | 6.4 | 16.1 | 0.00 | 0.00 | 0.00 | 85 | 1016.4 |
| 20260905141808 | 20 | 135 | 4.8 | 16.1 | 0.00 | 0.00 | 0.00 | 86 | 1016.4 |
| 20260905141542 | 20 | 73 | 8.0 | 16.1 | 0.00 | 0.00 | 0.00 | 85 | 1016.2 |
| 20260905140805 | 20 | 80 | 6.4 | 16.1 | 0.00 | 0.00 | 0.00 | 86 | 1016.3 |
| 20260905140303 | 20 | 62 | 6.4 | 14.5 | 0.00 | 0.00 | 0.00 | 87 | 1016.3 |
| 20260905135804 | 20 | 78 | 8.0 | 14.5 | 0.00 | 0.00 | 0.00 | 86 | 1016.3 |
| 20260905135307 | 20 | 78 | 6.4 | 11.3 | 0.00 | 0.00 | 0.00 | 87 | 1016.3 |
| 20260905134818 | 20 | 89 | 6.4 | 11.3 | 0.00 | 0.00 | 0.00 | 88 | 1016.4 |
| 20260905134305 | 20 | 73 | 8.0 | 11.3 | 0.00 | 0.00 | 0.00 | 88 | 1016.4 |
| 20260905133802 | 20 | 100 | 6.4 | 9.7 | 0.00 | 0.00 | 0.00 | 88 | 1016.4 |
| 20260905133303 | 20 | 89 | 4.8 | 14.5 | 0.00 | 0.00 | 0.00 | 88 | 1016.3 |
| 20260905132800 | 20 | 44 | 4.8 | 14.5 | 0.00 | 0.00 | 0.00 | 89 | 1016.3 |
| 20260905132300 | 20 | 86 | 4.8 | 11.3 | 0.00 | 0.00 | 0.00 | 90 | 1016.3 |
| 20260905131258 | 20 | 76 | 4.8 | 9.7 | 0.00 | 0.00 | 0.00 | 92 | 1016.4 |
| 20260905130759 | 19 | 110 | 4.8 | 9.7 | 0.00 | 0.00 | 0.00 | 93 | 1016.2 |
| 20260905130523 | 19 | 49 | 4.8 | 9.7 | 0.00 | 0.00 | 0.00 | 95 | 1016.2 |
| 20260905125757 | 19 | 69 | 4.8 | 9.7 | 0.00 | 0.00 | 0.00 | 95 | 1016.2 |
| 20260905125530 | 19 | 92 | 3.2 | 8.0 | 0.00 | 0.00 | 0.00 | 97 | 1016.2 |
| 20260905124755 | 18 | 92 | 4.8 | 8.0 | 0.00 | 0.00 | 0.00 | 98 | 1016.1 |
| 20260905124258 | 18 | 63 | 4.8 | 8.0 | 0.00 | 0.00 | 0.00 | 99 | 1016.1 |
| 20260905123755 | 18 | 75 | 1.6 | 8.0 | 0.00 | 0.00 | 0.00 | 99 | 1016.0 |
| 20260905123256 | 17 | 116 | 1.6 | 8.0 | 0.00 | 0.00 | 0.00 | 99 | 1016.1 |
| 20260905122754 | 17 | 63 | 4.8 | 8.0 | 0.00 | 0.00 | 0.00 | 99 | 1016.1 |
| 20260905122257 | 16 | 58 | 1.6 | 8.0 | 0.00 | 0.00 | 0.00 | 99 | 1016.1 |
| 20260905121753 | 15 | 63 | 1.6 | 6.4 | 0.00 | 0.00 | 0.00 | 99 | 1016.0 |
| 20260905121254 | 15 | 54 | 1.6 | 3.2 | 0.00 | 0.00 | 0.00 | 98 | 1016.0 |
| 20260905120752 | 14 | 290 | 0.0 | 0.0 | 0.00 | 0.00 | 0.00 | 98 | 1016.0 |
| 20260905120251 | 14 | 274 | 0.0 | 0.0 | 0.00 | 0.00 | 0.00 | 98 | 1015.9 |
| 20260905115750 | 13 | 272 | 0.0 | 0.0 | 0.00 | 0.03 | 0.00 | 98 | 1015.9 |
| 20260905115252 | 13 | 272 | 0.0 | 0.0 | 0.00 | 0.03 | 0.00 | 98 | 1015.9 |
| 20260905114751 | 13 | 272 | 0.0 | 1.6 | 0.00 | 0.08 | 0.00 | 98 | 1015.8 |
| 20260905114251 | 13 | 272 | 0.0 | 3.2 | 0.00 | 0.08 | 0.00 | 98 | 1015.8 |
| 20260905113751 | 13 | 272 | 0.0 | 3.2 | 0.00 | 0.08 | 0.00 | 98 | 1015.8 |
| 20260905113250 | 13 | 272 | 0.0 | 1.6 | 0.00 | 0.08 | 0.00 | 98 | 1015.8 |
| 20260905112750 | 13 | 272 | 0.0 | 3.2 | 0.00 | 0.08 | 0.00 | 98 | 1015.9 |
| 20260905112249 | 13 | 282 | 0.0 | 3.2 | 0.00 | 0.08 | 0.00 | 98 | 1015.8 |
| 20260905111749 | 13 | 281 | 0.0 | 1.6 | 0.00 | 0.08 | 0.00 | 98 | 1015.8 |
| 20260905111249 | 13 | 282 | 0.0 | 3.2 | 0.00 | 0.08 | 0.00 | 98 | 1015.7 |
| 20260905110748 | 13 | 282 | 0.0 | 3.2 | 0.00 | 0.08 | 0.00 | 98 | 1015.7 |
| 20260905110515 | 13 | 282 | 0.0 | 3.2 | 0.00 | 0.08 | 0.00 | 98 | 1015.7 |
| 20260905105747 | 13 | 282 | 1.6 | 3.2 | 0.00 | 0.08 | 0.00 | 98 | 1015.6 |
| 20260905105248 | 13 | 285 | 1.6 | 3.2 | 0.00 | 0.08 | 0.00 | 98 | 1015.6 |
| 20260905104747 | 13 | 286 | 1.6 | 3.2 | 0.00 | 0.08 | 0.00 | 98 | 1015.5 |
| 20260905104247 | 13 | 272 | 0.0 | 3.2 | 0.00 | 0.08 | 0.00 | 98 | 1015.4 |
| 20260905103748 | 13 | 274 | 1.6 | 3.2 | 0.00 | 0.08 | 0.00 | 98 | 1015.5 |
| 20260905103246 | 13 | 274 | 0.0 | 1.6 | 0.00 | 0.08 | 0.00 | 98 | 1015.4 |
| 20260905102746 | 13 | 274 | 0.0 | 3.2 | 0.00 | 0.08 | 0.00 | 98 | 1015.4 |
| 20260905102246 | 13 | 275 | 1.6 | 3.2 | 0.00 | 0.08 | 0.00 | 98 | 1015.4 |
| 20260905101747 | 13 | 274 | 1.6 | 3.2 | 0.00 | 0.08 | 0.00 | 98 | 1015.3 |
| 20260905101245 | 13 | 272 | 1.6 | 3.2 | 0.00 | 0.08 | 0.00 | 98 | 1015.4 |
| 20260905100746 | 13 | 271 | 0.0 | 1.6 | 0.00 | 0.08 | 0.00 | 98 | 1015.4 |
| 20260905100243 | 14 | 271 | 0.0 | 3.2 | 0.00 | 0.08 | 0.00 | 98 | 1015.5 |
| 20260905095739 | 14 | 271 | 0.0 | 3.2 | 0.00 | 0.08 | 0.00 | 98 | 1015.4 |
| 20260905095239 | 14 | 272 | 1.6 | 3.2 | 0.00 | 0.08 | 0.00 | 98 | 1015.3 |
| 20260905094742 | 14 | 272 | 1.6 | 3.2 | 0.00 | 0.08 | 0.00 | 98 | 1015.3 |
| 20260905094239 | 14 | 271 | 1.6 | 4.8 | 0.00 | 0.08 | 0.00 | 98 | 1015.2 |
| 20260905093740 | 14 | 274 | 3.2 | 4.8 | 0.00 | 0.08 | 0.00 | 98 | 1015.2 |
| 20260905093238 | 14 | 282 | 3.2 | 4.8 | 0.00 | 0.08 | 0.00 | 98 | 1015.1 |
| 20260905092738 | 14 | 276 | 1.6 | 4.8 | 0.00 | 0.08 | 0.00 | 98 | 1015.2 |
| 20260905092236 | 14 | 283 | 3.2 | 4.8 | 0.00 | 0.08 | 0.00 | 98 | 1015.1 |
| 20260905091735 | 14 | 269 | 3.2 | 4.8 | 0.00 | 0.08 | 0.00 | 98 | 1015.2 |
| 20260905091234 | 14 | 278 | 1.6 | 3.2 | 0.00 | 0.08 | 0.00 | 98 | 1015.2 |
| 20260905091000 | 14 | 278 | 1.6 | 4.8 | 0.00 | 0.08 | 0.00 | 98 | 1014.9 |
| 20260905090234 | 14 | 278 | 1.6 | 4.8 | 0.00 | 0.08 | 0.00 | 98 | 1014.9 |
| 20260905090006 | 14 | 279 | 1.6 | 3.2 | 0.00 | 0.08 | 0.00 | 98 | 1015.1 |
| 20260905085233 | 14 | 268 | 1.6 | 3.2 | 0.00 | 0.08 | 0.00 | 98 | 1015.1 |
| 20260905084736 | 14 | 282 | 0.0 | 3.2 | 0.00 | 0.08 | 0.00 | 98 | 1014.9 |
| 20260905084233 | 14 | 282 | 1.6 | 3.2 | 0.00 | 0.08 | 0.00 | 98 | 1015.1 |
| 20260905083732 | 14 | 282 | 1.6 | 3.2 | 0.00 | 0.08 | 0.00 | 98 | 1015.1 |
| 20260905083233 | 14 | 282 | 1.6 | 3.2 | 0.00 | 0.08 | 0.00 | 97 | 1015.1 |
| 20260905082732 | 14 | 282 | 0.0 | 3.2 | 0.00 | 0.08 | 0.00 | 97 | 1015.1 |
| 20260905082233 | 14 | 282 | 1.6 | 3.2 | 0.00 | 0.08 | 0.00 | 97 | 1014.9 |
| 20260905082004 | 14 | 282 | 1.6 | 3.2 | 0.00 | 0.08 | 0.00 | 97 | 1014.9 |
| 20260905081232 | 14 | 282 | 1.6 | 3.2 | 0.00 | 0.08 | 0.00 | 97 | 1014.9 |
| 20260905080733 | 14 | 282 | 0.0 | 0.0 | 0.00 | 0.08 | 0.00 | 98 | 1014.9 |
| 20260905080236 | 14 | 282 | 0.0 | 0.0 | 0.00 | 0.08 | 0.00 | 97 | 1014.9 |
| 20260905075732 | 14 | 282 | 0.0 | 1.6 | 0.00 | 0.08 | 0.00 | 97 | 1014.9 |
| 20260905075233 | 14 | 282 | 0.0 | 3.2 | 0.00 | 0.08 | 0.00 | 97 | 1014.8 |
| 20260905074732 | 15 | 282 | 1.6 | 3.2 | 0.00 | 0.08 | 0.00 | 97 | 1014.8 |
| 20260905074234 | 15 | 279 | 1.6 | 3.2 | 0.00 | 0.08 | 0.00 | 97 | 1014.8 |
| 20260905074007 | 15 | 279 | 0.0 | 3.2 | 0.00 | 0.08 | 0.00 | 98 | 1014.8 |
| 20260905073233 | 15 | 279 | 3.2 | 3.2 | 0.00 | 0.08 | 0.00 | 97 | 1014.8 |
| 20260905072732 | 15 | 281 | 3.2 | 3.2 | 0.00 | 0.08 | 0.00 | 97 | 1014.8 |
| 20260905072233 | 15 | 251 | 1.6 | 3.2 | 0.00 | 0.08 | 0.00 | 97 | 1014.8 |
| 20260905071732 | 15 | 251 | 1.6 | 3.2 | 0.00 | 0.08 | 0.00 | 97 | 1014.8 |
| 20260905071459 | 15 | 251 | 1.6 | 3.2 | 0.00 | 0.08 | 0.00 | 97 | 1014.7 |
| 20260905070731 | 15 | 251 | 0.0 | 1.6 | 0.00 | 0.08 | 0.00 | 97 | 1014.7 |
| 20260905070233 | 15 | 251 | 0.0 | 3.2 | 0.00 | 0.08 | 0.00 | 97 | 1014.6 |
| 20260905065731 | 15 | 251 | 1.6 | 3.2 | 0.00 | 0.08 | 0.00 | 97 | 1014.7 |
| 20260905065231 | 15 | 251 | 1.6 | 3.2 | 0.00 | 0.08 | 0.00 | 97 | 1014.7 |
| 20260905064732 | 15 | 251 | 1.6 | 3.2 | 0.00 | 0.08 | 0.00 | 97 | 1014.7 |
| 20260905064233 | 15 | 274 | 0.0 | 1.6 | 0.00 | 0.08 | 0.00 | 97 | 1014.6 |
| 20260905063731 | 15 | 276 | 1.6 | 1.6 | 0.00 | 0.08 | 0.00 | 97 | 1014.6 |
| 20260905063231 | 15 | 276 | 1.6 | 3.2 | 0.00 | 0.08 | 0.00 | 97 | 1014.7 |
| 20260905062730 | 15 | 276 | 1.6 | 3.2 | 0.00 | 0.08 | 0.00 | 97 | 1014.7 |
| 20260905062231 | 16 | 276 | 0.0 | 1.6 | 0.00 | 0.08 | 0.00 | 97 | 1014.6 |
| 20260905061730 | 16 | 276 | 0.0 | 3.2 | 0.00 | 0.08 | 0.00 | 97 | 1014.7 |
| 20260905061230 | 16 | 276 | 1.6 | 3.2 | 0.00 | 0.08 | 0.00 | 97 | 1014.7 |
| 20260905060730 | 16 | 275 | 1.6 | 3.2 | 0.00 | 0.08 | 0.00 | 97 | 1014.7 |
| 20260905060232 | 16 | 269 | 1.6 | 3.2 | 0.00 | 0.08 | 0.00 | 97 | 1014.8 |
| 20260905055729 | 16 | 269 | 1.6 | 3.2 | 0.00 | 0.08 | 0.00 | 97 | 1014.8 |
| 20260905054729 | 16 | 89 | 1.6 | 3.2 | 0.00 | 0.08 | 0.00 | 97 | 1014.8 |
| 20260905054229 | 16 | 90 | 1.6 | 3.2 | 0.00 | 0.08 | 0.00 | 97 | 1014.8 |
| 20260905053725 | 16 | 85 | 1.6 | 3.2 | 0.00 | 0.08 | 0.00 | 97 | 1014.8 |
| 20260905053223 | 16 | 85 | 1.6 | 3.2 | 0.00 | 0.08 | 0.00 | 97 | 1014.8 |
| 20260905052723 | 16 | 87 | 0.0 | 0.0 | 0.00 | 0.08 | 0.00 | 97 | 1014.8 |
| 20260905052224 | 16 | 86 | 0.0 | 3.2 | 0.00 | 0.08 | 0.00 | 97 | 1014.9 |
| 20260905051719 | 17 | 85 | 1.6 | 3.2 | 0.00 | 0.08 | 0.00 | 97 | 1014.8 |
| 20260905051220 | 17 | 86 | 0.0 | 0.0 | 0.00 | 0.08 | 0.00 | 97 | 1014.8 |
| 20260905050719 | 17 | 89 | 0.0 | 0.0 | 0.00 | 0.08 | 0.00 | 97 | 1014.7 |
| 20260905050222 | 17 | 89 | 0.0 | 0.0 | 0.00 | 0.08 | 0.00 | 97 | 1014.8 |
| 20260905045720 | 17 | 89 | 0.0 | 0.0 | 0.00 | 0.08 | 0.00 | 97 | 1014.9 |
| 20260905045216 | 17 | 89 | 0.0 | 0.0 | 0.00 | 0.08 | 0.00 | 97 | 1014.9 |
| 20260905044714 | 17 | 89 | 0.0 | 0.0 | 0.00 | 0.08 | 0.00 | 97 | 1014.8 |
| 20260905044214 | 17 | 89 | 0.0 | 0.0 | 0.00 | 0.08 | 0.00 | 97 | 1014.8 |
| 20260905043714 | 17 | 89 | 0.0 | 0.0 | 0.00 | 0.08 | 0.00 | 97 | 1014.8 |
| 20260905043215 | 17 | 89 | 0.0 | 1.6 | 0.00 | 0.08 | 0.00 | 97 | 1014.8 |
| 20260905042713 | 17 | 89 | 0.0 | 1.6 | 0.00 | 0.08 | 0.00 | 97 | 1014.8 |
| 20260905042446 | 17 | 89 | 0.0 | 1.6 | 0.00 | 0.08 | 0.00 | 97 | 1014.7 |
| 20260905041712 | 17 | 89 | 0.0 | 3.2 | 0.00 | 0.08 | 0.00 | 97 | 1014.8 |
| 20260905041214 | 17 | 89 | 0.0 | 3.2 | 0.00 | 0.08 | 0.00 | 97 | 1014.9 |
| 20260905040711 | 17 | 87 | 0.0 | 3.2 | 0.00 | 0.08 | 0.00 | 97 | 1014.9 |
| 20260905040213 | 17 | 90 | 1.6 | 3.2 | 0.00 | 0.08 | 0.00 | 97 | 1014.9 |
| 20260905035707 | 17 | 89 | 0.0 | 3.2 | 0.00 | 0.08 | 0.08 | 97 | 1014.9 |
| 20260905035439 | 17 | 138 | 0.0 | 0.0 | 0.00 | 0.08 | 0.08 | 97 | 1014.9 |
| 20260905034706 | 17 | 138 | 0.0 | 0.0 | 0.00 | 0.08 | 0.08 | 97 | 1014.9 |
| 20260905034206 | 17 | 138 | 0.0 | 0.0 | 0.00 | 0.08 | 0.08 | 97 | 1015.1 |
| 20260905033707 | 17 | 138 | 0.0 | 0.0 | 0.00 | 0.08 | 0.08 | 96 | 1015.2 |
| 20260905033206 | 17 | 138 | 0.0 | 0.0 | 0.00 | 0.08 | 0.08 | 96 | 1015.2 |
| 20260905032706 | 17 | 140 | 0.0 | 0.0 | 0.00 | 0.08 | 0.08 | 96 | 1015.1 |
| 20260905031705 | 17 | 142 | 0.0 | 0.0 | 0.00 | 0.08 | 0.08 | 96 | 1015.3 |
| 20260905031205 | 17 | 142 | 0.0 | 0.0 | 0.00 | 0.08 | 0.08 | 96 | 1015.2 |
| 20260905030704 | 17 | 142 | 0.0 | 0.0 | 0.00 | 0.08 | 0.08 | 96 | 1015.2 |
| 20260905030205 | 17 | 142 | 0.0 | 0.0 | 0.00 | 0.08 | 0.08 | 96 | 1015.3 |
| 20260905025707 | 17 | 142 | 0.0 | 0.0 | 0.00 | 0.08 | 0.08 | 96 | 1015.3 |
| 20260905025206 | 18 | 142 | 0.0 | 0.0 | 0.00 | 0.08 | 0.08 | 96 | 1015.2 |
| 20260905024705 | 18 | 142 | 0.0 | 0.0 | 0.00 | 0.08 | 0.08 | 96 | 1015.4 |
| 20260905024206 | 18 | 144 | 0.0 | 0.0 | 0.00 | 0.08 | 0.08 | 96 | 1015.3 |
| 20260905023705 | 18 | 144 | 0.0 | 1.6 | 0.00 | 0.08 | 0.08 | 96 | 1015.2 |
| 20260905023207 | 18 | 144 | 0.0 | 3.2 | 0.00 | 0.08 | 0.08 | 96 | 1015.2 |
| 20260905022934 | 18 | 141 | 0.0 | 3.2 | 0.00 | 0.08 | 0.08 | 96 | 1015.1 |
| 20260905022205 | 18 | 137 | 0.0 | 3.2 | 0.00 | 0.08 | 0.08 | 96 | 1015.2 |
| 20260905021935 | 18 | 140 | 0.0 | 4.8 | 0.00 | 0.08 | 0.08 | 96 | 1015.2 |
| 20260905021205 | 18 | 145 | 1.6 | 4.8 | 0.00 | 0.08 | 0.08 | 96 | 1015.1 |
| 20260905020204 | 18 | 100 | 3.2 | 6.4 | 0.00 | 0.08 | 0.08 | 95 | 1015.3 |
| 20260905015706 | 18 | 100 | 0.0 | 4.8 | 0.00 | 0.08 | 0.08 | 95 | 1015.2 |
| 20260905015207 | 18 | 62 | 3.2 | 6.4 | 0.00 | 0.08 | 0.08 | 95 | 1015.1 |
| 20260905014706 | 18 | 96 | 0.0 | 6.4 | 0.00 | 0.08 | 0.08 | 95 | 1015.1 |
| 20260905014204 | 18 | 75 | 3.2 | 6.4 | 0.00 | 0.08 | 0.08 | 95 | 1015.2 |
| 20260905013702 | 18 | 100 | 1.6 | 6.4 | 0.00 | 0.08 | 0.08 | 95 | 1015.2 |
| 20260905013204 | 18 | 62 | 3.2 | 6.4 | 0.00 | 0.08 | 0.08 | 95 | 1015.2 |
| 20260905012704 | 18 | 69 | 3.2 | 4.8 | 0.00 | 0.08 | 0.08 | 95 | 1015.2 |
| 20260905012203 | 18 | 83 | 0.0 | 3.2 | 0.00 | 0.08 | 0.08 | 95 | 1015.1 |
| 20260905011929 | 18 | 106 | 1.6 | 3.2 | 0.00 | 0.08 | 0.08 | 95 | 1015.1 |
| 20260905011434 | 18 | 71 | 1.6 | 3.2 | 0.00 | 0.08 | 0.08 | 94 | 1015.1 |
| 20260905010703 | 18 | 76 | 3.2 | 4.8 | 0.00 | 0.08 | 0.08 | 94 | 1014.9 |
| 20260905010206 | 18 | 72 | 0.0 | 4.8 | 0.00 | 0.08 | 0.08 | 94 | 1014.8 |
| 20260905005658 | 18 | 65 | 0.0 | 4.8 | 0.00 | 0.08 | 0.08 | 94 | 1014.8 |
| 20260905005200 | 18 | 62 | 1.6 | 4.8 | 0.00 | 0.08 | 0.08 | 93 | 1014.7 |
| 20260905004654 | 18 | 97 | 0.0 | 0.0 | 0.00 | 0.08 | 0.08 | 93 | 1014.7 |
| 20260905004156 | 19 | 97 | 0.0 | 0.0 | 0.00 | 0.08 | 0.08 | 93 | 1014.6 |
| 20260905003153 | 19 | 97 | 0.0 | 0.0 | 0.00 | 0.08 | 0.08 | 93 | 1014.6 |
| 20260905002653 | 19 | 97 | 0.0 | 0.0 | 0.00 | 0.08 | 0.08 | 93 | 1014.5 |
| 20260905002152 | 19 | 100 | 0.0 | 0.0 | 0.00 | 0.08 | 0.08 | 92 | 1014.4 |
| 20260905001651 | 19 | 99 | 0.0 | 1.6 | 0.00 | 0.08 | 0.08 | 92 | 1014.5 |
| 20260905001152 | 19 | 99 | 0.0 | 3.2 | 0.00 | 0.08 | 0.08 | 92 | 1014.4 |
| 20260905000650 | 19 | 82 | 0.0 | 3.2 | 0.00 | 0.08 | 0.08 | 92 | 1014.4 |
| 20260905000153 | 20 | 78 | 0.0 | 3.2 | 0.00 | 0.08 | 0.08 | 92 | 1014.4 |
| 20260904235647 | 20 | 65 | 1.6 | 3.2 | 0.00 | 0.08 | 0.08 | 92 | 1014.4 |
| 20260904235147 | 20 | 80 | 1.6 | 3.2 | 0.00 | 0.08 | 0.08 | 91 | 1014.3 |
| 20260904234646 | 20 | 76 | 1.6 | 3.2 | 0.00 | 0.08 | 0.08 | 91 | 1014.3 |
| 20260904234146 | 20 | 89 | 1.6 | 3.2 | 0.00 | 0.08 | 0.08 | 91 | 1014.3 |
| 20260904233645 | 20 | 89 | 0.0 | 3.2 | 0.00 | 0.08 | 0.08 | 91 | 1014.4 |
| 20260904233146 | 20 | 90 | 0.0 | 3.2 | 0.00 | 0.08 | 0.08 | 91 | 1014.3 |
| 20260904232645 | 20 | 90 | 0.0 | 3.2 | 0.00 | 0.08 | 0.08 | 91 | 1014.3 |
| 20260904232146 | 20 | 87 | 1.6 | 3.2 | 0.00 | 0.08 | 0.08 | 91 | 1014.1 |
| 20260904231646 | 20 | 69 | 1.6 | 3.2 | 0.00 | 0.08 | 0.08 | 92 | 1014.2 |
| 20260904231146 | 20 | 75 | 0.0 | 1.6 | 0.00 | 0.08 | 0.08 | 92 | 1014.2 |
| 20260904230642 | 20 | 134 | 0.0 | 4.8 | 0.00 | 0.08 | 0.08 | 92 | 1014.2 |
| 20260904230146 | 20 | 117 | 1.6 | 6.4 | 0.00 | 0.08 | 0.08 | 92 | 1014.0 |
| 20260904225642 | 20 | 114 | 1.6 | 6.4 | 0.00 | 0.08 | 0.08 | 92 | 1014.0 |
| 20260904225141 | 20 | 90 | 3.2 | 6.4 | 0.00 | 0.08 | 0.08 | 92 | 1014.0 |
| 20260904224905 | 20 | 79 | 4.8 | 6.4 | 0.00 | 0.08 | 0.08 | 92 | 1014.0 |
| 20260904224139 | 20 | 66 | 3.2 | 6.4 | 0.00 | 0.08 | 0.08 | 92 | 1014.1 |
| 20260904223639 | 20 | 117 | 3.2 | 6.4 | 0.00 | 0.08 | 0.08 | 92 | 1014.0 |
| 20260904223140 | 20 | 68 | 3.2 | 8.0 | 0.00 | 0.08 | 0.08 | 92 | 1014.0 |
| 20260904222638 | 20 | 68 | 4.8 | 8.0 | 0.00 | 0.08 | 0.08 | 92 | 1013.9 |
| 20260904222139 | 20 | 76 | 3.2 | 6.4 | 0.00 | 0.08 | 0.08 | 92 | 1013.9 |
| 20260904221905 | 20 | 83 | 3.2 | 6.4 | 0.00 | 0.08 | 0.08 | 92 | 1013.9 |
| 20260904221142 | 20 | 82 | 3.2 | 6.4 | 0.00 | 0.08 | 0.08 | 92 | 1014.0 |
| 20260904220636 | 20 | 113 | 3.2 | 8.0 | 0.00 | 0.08 | 0.08 | 92 | 1014.0 |
| 20260904220143 | 20 | 102 | 4.8 | 8.0 | 0.00 | 0.08 | 0.08 | 91 | 1014.1 |
| 20260904215558 | 20 | 103 | 3.2 | 8.0 | 0.00 | 0.08 | 0.08 | 91 | 1014.0 |
| 20260904215058 | 20 | 51 | 4.8 | 8.0 | 0.00 | 0.08 | 0.08 | 91 | 1014.0 |
| 20260904214559 | 20 | 80 | 3.2 | 6.4 | 0.00 | 0.08 | 0.08 | 90 | 1014.0 |
| 20260904214057 | 20 | 51 | 3.2 | 6.4 | 0.00 | 0.08 | 0.08 | 89 | 1014.0 |
| 20260904213558 | 20 | 97 | 3.2 | 9.7 | 0.00 | 0.08 | 0.08 | 89 | 1014.1 |
| 20260904213057 | 20 | 89 | 3.2 | 9.7 | 0.00 | 0.08 | 0.08 | 88 | 1013.9 |
| 20260904212556 | 20 | 95 | 4.8 | 8.0 | 0.00 | 0.08 | 0.08 | 86 | 1013.9 |
| 20260904212055 | 20 | 90 | 3.2 | 8.0 | 0.00 | 0.08 | 0.08 | 84 | 1013.9 |
| 20260904211556 | 21 | 89 | 4.8 | 8.0 | 0.00 | 0.08 | 0.08 | 82 | 1014.0 |
| 20260904211057 | 21 | 61 | 3.2 | 6.4 | 0.00 | 0.08 | 0.08 | 82 | 1014.0 |
| 20260904210556 | 21 | 78 | 3.2 | 0.0 | 0.00 | 0.08 | 0.08 | 82 | 1014.0 |
| 20260904205702 | 21 | 90 | 3.2 | 8.0 | 0.00 | 0.08 | 0.08 | 82 | 1013.9 |
| 20260904205202 | 21 | 111 | 3.2 | 8.0 | 0.00 | 0.08 | 0.08 | 81 | 1013.9 |
| 20260904204934 | 21 | 95 | 3.2 | 8.0 | 0.00 | 0.08 | 0.08 | 81 | 1013.9 |
| 20260904204203 | 21 | 138 | 1.6 | 8.0 | 0.00 | 0.08 | 0.08 | 83 | 1013.9 |
| 20260904203702 | 21 | 145 | 4.8 | 8.0 | 0.00 | 0.08 | 0.08 | 83 | 1014.0 |
| 20260904203202 | 21 | 104 | 4.8 | 9.7 | 0.00 | 0.08 | 0.08 | 83 | 1014.1 |
| 20260904202704 | 20 | 92 | 6.4 | 9.7 | 0.00 | 0.08 | 0.08 | 83 | 1014.0 |
| 20260904202202 | 20 | 89 | 3.2 | 9.7 | 0.00 | 0.08 | 0.08 | 83 | 1014.2 |
| 20260904201935 | 20 | 92 | 3.2 | 9.7 | 0.00 | 0.08 | 0.08 | 83 | 1014.1 |
| 20260904201600 | 21 | 179 | 4.8 | 9.7 | 0.00 | 0.08 | 0.08 | 85 | 1014.2 |
| 20260904200741 | 20 | 71 | 4.8 | 9.7 | 0.00 | 0.08 | 0.08 | 85 | 1014.1 |
| 20260904200228 | 20 | 90 | 4.8 | 9.7 | 0.00 | 0.08 | 0.08 | 85 | 1014.2 |
| 20260904195659 | 20 | 95 | 4.8 | 14.5 | 0.00 | 0.08 | 0.08 | 86 | 1014.1 |
| 20260904195525 | 20 | 110 | 3.2 | 17.7 | 0.00 | 0.08 | 0.08 | 90 | 1014.0 |
| 20260904195417 | 20 | 107 | 1.6 | 16.1 | 0.00 | 0.08 | 0.08 | 89 | 1014.1 |
| 20260904194158 | 20 | 110 | 6.4 | 19.3 | 0.00 | 0.08 | 0.08 | 91 | 1014.0 |
| 20260904193659 | 20 | 111 | 8.0 | 19.3 | 0.00 | 0.08 | 0.08 | 91 | 1014.0 |
| 20260904193157 | 20 | 89 | 9.7 | 19.3 | 0.00 | 0.08 | 0.08 | 92 | 1014.0 |
| 20260904192657 | 20 | 90 | 11.3 | 17.7 | 0.00 | 0.08 | 0.08 | 92 | 1014.0 |
| 20260904192155 | 20 | 102 | 9.7 | 17.7 | 0.00 | 0.08 | 0.08 | 92 | 1014.1 |
| 20260904191655 | 20 | 111 | 6.4 | 17.7 | 0.00 | 0.08 | 0.08 | 92 | 1014.2 |
| 20260904191156 | 20 | 103 | 8.0 | 17.7 | 0.00 | 0.08 | 0.08 | 92 | 1014.2 |
| 20260904190655 | 20 | 103 | 6.4 | 17.7 | 0.00 | 0.08 | 0.08 | 92 | 1014.2 |
| 20260904185635 | 20 | 103 | 8.0 | 16.1 | 0.00 | 0.08 | 0.08 | 92 | 1014.2 |
| 20260904185135 | 20 | 87 | 6.4 | 16.1 | 0.00 | 0.08 | 0.08 | 91 | 1014.2 |